Jamestown, NY
on Saturday, December 9, 2017

Saturday
       
Previous Day Next Day
Daily Summary
 ActualAverageRecord
Temperature
Mean Temperature °F °C °F °C  
Max Temperature 33°F 1°C 38°F 3°C 59°F 15°C (1980)
Min Temperature 16°F -9°C 19°F -7°C -6°F -21°C (1989)
Degree Days
Heating Degree Days 40    
Moisture
Dew Point 13°F -11°C   
Average Humidity 67    
Maximum Humidity 88    
Minimum Humidity 38    
Precipitation
Precipitation 0.00 in / 0.00 cm in / cm in / cm ()
Wind
Wind Speed 9 mph / 14 km/h   
Max Wind Speed 14 mph / 23 km/h   
Max Gust Speed 18 mph / 29 km/h   
Visibility 10 miles / 16 kilometers   
Events Snow   
Averages and records for this station are not official NWS values.
Key: T is trace of precipitation, MM is missing value
Source: NWS Daily Summary
Seasonal Weather Averages
Time(EST)TemperatureDew PointHumidity Pressure Visibility Wind DirectionWind SpeedGust SpeedPrecipitationEvents Conditions
12:56 AM 19.0°F -7.2°C 12.0°F -11.1°C 74% 29.95 in / 1014.2 hPa 10.0 miles / 16.1 kilometers SSW 11.5 mph / 18.5 km/h - N/A   Clear
1:56 AM 18.0°F -7.8°C 12.0°F -11.1°C 78% 29.94 in / 1013.9 hPa 10.0 miles / 16.1 kilometers SSW 8.1 mph / 13.0 km/h - N/A   Clear
2:56 AM 17.1°F -8.3°C 12.0°F -11.1°C 81% 29.95 in / 1014.0 hPa 10.0 miles / 16.1 kilometers South 8.1 mph / 13.0 km/h - N/A   Clear
3:56 AM 16.0°F -8.9°C 12.0°F -11.1°C 84% 29.94 in / 1013.7 hPa 10.0 miles / 16.1 kilometers South 6.9 mph / 11.1 km/h - N/A   Clear
4:56 AM 16.0°F -8.9°C 12.0°F -11.1°C 84% 29.93 in / 1013.5 hPa 10.0 miles / 16.1 kilometers South 8.1 mph / 13.0 km/h - N/A   Scattered Clouds
5:56 AM 17.1°F -8.3°C 12.0°F -11.1°C 81% 29.92 in / 1013.2 hPa 10.0 miles / 16.1 kilometers South 8.1 mph / 13.0 km/h - N/A   Clear
6:56 AM 16.0°F -8.9°C 12.0°F -11.1°C 84% 29.91 in / 1012.6 hPa 10.0 miles / 16.1 kilometers South 9.2 mph / 14.8 km/h - N/A   Clear
7:56 AM 16.0°F -8.9°C 12.9°F -10.6°C 88% 29.90 in / 1012.4 hPa 10.0 miles / 16.1 kilometers South 8.1 mph / 13.0 km/h - N/A   Clear
8:56 AM 17.1°F -8.3°C 12.9°F -10.6°C 84% 29.89 in / 1012.0 hPa 10.0 miles / 16.1 kilometers South 5.8 mph / 9.3 km/h - N/A   Clear
9:56 AM 19.9°F -6.7°C 14.0°F -10.0°C 78% 29.88 in / 1011.9 hPa 10.0 miles / 16.1 kilometers South 11.5 mph / 18.5 km/h 17.3 mph / 27.8 km/h N/A   Overcast
10:56 AM 23.0°F -5.0°C 14.0°F -10.0°C 68% 29.86 in / 1011.1 hPa 10.0 miles / 16.1 kilometers South 10.4 mph / 16.7 km/h - N/A   Overcast
11:56 AM 27.0°F -2.8°C 14.0°F -10.0°C 58% 29.82 in / 1009.7 hPa 10.0 miles / 16.1 kilometers South 10.4 mph / 16.7 km/h - N/A   Overcast
12:56 PM 30.0°F -1.1°C 12.0°F -11.1°C 47% 29.78 in / 1008.5 hPa 10.0 miles / 16.1 kilometers South 9.2 mph / 14.8 km/h - N/A   Overcast
1:56 PM 32.0°F 0.0°C 12.9°F -10.6°C 45% 29.77 in / 1008.0 hPa 10.0 miles / 16.1 kilometers SSE 8.1 mph / 13.0 km/h - N/A   Clear
2:56 PM 33.1°F 0.6°C 10.0°F -12.2°C 38% 29.76 in / 1007.7 hPa 10.0 miles / 16.1 kilometers WSW 8.1 mph / 13.0 km/h - N/A   Clear
3:56 PM 32.0°F 0.0°C 12.0°F -11.1°C 44% 29.77 in / 1008.1 hPa 10.0 miles / 16.1 kilometers WSW 5.8 mph / 9.3 km/h - N/A   Partly Cloudy
4:56 PM 28.9°F -1.7°C 10.0°F -12.2°C 45% 29.79 in / 1008.6 hPa 10.0 miles / 16.1 kilometers West 4.6 mph / 7.4 km/h - N/A   Partly Cloudy
5:56 PM 28.0°F -2.2°C 10.0°F -12.2°C 47% 29.80 in / 1009.1 hPa 10.0 miles / 16.1 kilometers WNW 6.9 mph / 11.1 km/h - N/A   Overcast
6:56 PM 27.0°F -2.8°C 12.0°F -11.1°C 53% 29.81 in / 1009.5 hPa 10.0 miles / 16.1 kilometers WNW 5.8 mph / 9.3 km/h - N/A   Mostly Cloudy
7:56 PM 27.0°F -2.8°C 12.9°F -10.6°C 56% 29.82 in / 1009.8 hPa 10.0 miles / 16.1 kilometers West 11.5 mph / 18.5 km/h - N/A   Overcast
8:56 PM 26.1°F -3.3°C 16.0°F -8.9°C 66% 29.83 in / 1010.0 hPa 10.0 miles / 16.1 kilometers WSW 10.4 mph / 16.7 km/h - N/A   Overcast
9:56 PM 25.0°F -3.9°C 17.1°F -8.3°C 72% 29.82 in / 1009.8 hPa 9.0 miles / 14.5 kilometers SW 13.8 mph / 22.2 km/h - 0.00 in / 0.0 cm Snow Light Snow
10:56 PM 24.1°F -4.4°C 18.0°F -7.8°C 77% 29.82 in / 1009.8 hPa 9.0 miles / 14.5 kilometers WSW 12.7 mph / 20.4 km/h 18.4 mph / 29.6 km/h 0.00 in / 0.0 cm Snow Light Snow
11:56 PM 25.0°F -3.9°C 19.0°F -7.2°C 78% 29.82 in / 1009.7 hPa 9.0 miles / 14.5 kilometers WSW 11.5 mph / 18.5 km/h - 0.00 in / 0.0 cm Snow Light Snow